Weather in Reading

United Kingdom     51°27′37″N   0°58′23″E
temp.,
°C
wind,
m/s
gust,
m/s
humid.,
%
clouds,
%
prec.,
mm/h
press.,
hPa
HPBL,
m
12 april, mon
mon1201:00−1wnw22884 0.1 102621
04:00−1w2388100 0.0 102749
07:00+1w1198100 0.9 102768
10:00+2w2289100 0.2 1028500
13:00+6wnw246574 0.3 10291260
16:00+7nw345773 0.3 10291416
19:00+5wnw347776 0.5 103082
22:00+2wnw228613 0.0 103211
13 april, tue
tue1301:000wnw118871 0.0 103310
04:000wnw119061 0.0 103310
07:000nw11925 0.0 103310
10:00+7nw11695 0.0 1034537
13:00+9nnw225595 0.0 10331584
16:00+9n125578 0.1 10321175
19:00+8nne006813 0.1 103210
22:00+6w017399 0.0 103310
14 april, wed
wed1401:00+5se1175100 0.0 103210
04:00+4ne227843 0.0 103222
07:00+3ne228246 0.0 103334
10:00+7ene34627 0.0 1033627
13:00+10ne345083 0.0 10331839
16:00+10ne454599 0.0 10312090
19:00+7ne47651 0.0 1032226
22:00+3ene37731 0.0 1033126
15 april, thu
thu1501:00+1ne22856 0.0 103324
04:00−1nne34916 0.0 103358
07:00−1nne26895 0.0 1033141
10:00+6ne57615 0.0 10331207
13:00+9ne565289 0.1 10311875
16:00+7nne5663100 0.1 10301120
19:00+7nne477086 0.3 1029310
22:00+2ene34865 0.1 103160
16 april, fri
fri1601:00−1ne38870 0.1 1031134
04:00−1ne37904 0.0 1031134
07:000nne38864 0.0 1031176
10:00+7ne57560 0.0 1031895
13:00+10ne564826 0.0 10301828
16:00+11ne664895 0.0 10291868
19:00+8ne486947 0.0 1030303
22:00+3ne410845 0.0 1031207